Regional Weather Roundup
Issued by NWS

Home | Current Version | Previous Version | Graphics & Text | Print | Product List | Glossary On
Versions: 1 2 3 4 5 6 7 8 9 10 11 12 13 14 15 16 17 18 19 20 21 22 23 24 25 26 27 28 29 30 31 32 33 34 35 36 37 38 39 40 41 42 43 44 45 46 47 48 49 50
246
ASUS45 KBOU 190007
RWRCO

WEATHER ROUNDUP FOR COLORADO
NATIONAL WEATHER SERVICE DENVER/BOULDER CO
600 PM MDT WED OCT 18 2017

NOTE: "FAIR" INDICATES FEW OR NO CLOUDS BELOW 12000 FEET WITH NO
SIGNIFICANT WEATHER AND/OR OBSTRUCTIONS TO VISIBILITY.

COZ001>005-013-030-031-190100-
...NORTHWEST COLORADO...

CITY           SKY/WX    TMP DP  RH WIND       PRES   REMARKS
CRAIG          FAIR      64  11  12 W5        30.19S
HAYDEN         FAIR      65  11  12 CALM      30.22F
MEEKER         FAIR      67   8  10 N5        30.18F
RABBIT EARS PA FAIR      46   9  21 W10       30.44S
STEAMBOAT SPGS FAIR      64  11  13 S5        30.23S
WALDEN         NOT AVBL
$$

COZ006>008-011-190100-
...WEST CENTRAL VALLEYS...

CITY           SKY/WX    TMP DP  RH WIND       PRES   REMARKS
GRAND JUNCTION FAIR      67  20  16 W5        30.12F
MONTROSE       FAIR      65  19  17 NW6       30.17F
EAGLE          FAIR      67   6   9 SW7       30.21S
RIFLE          FAIR      70  16  12 CALM      30.15F
DELTA          FAIR      72  12  10 W9        30.13F
NUCLA          FAIR      70  10  10 N5        30.20F
$$

COZ017>023-064>068-190100-
...SOUTHWEST COLORADO...

CITY           SKY/WX    TMP DP  RH WIND       PRES   REMARKS
DURANGO        FAIR      68  21  16 W12       30.20F
CORTEZ         FAIR      68  24  19 W7        30.18F
PAGOSA SPRINGS FAIR      65   9  11 S3        30.28S
TELLURIDE      FAIR      58  10  14 W7        30.37R
WOLF CREEK PAS FAIR      45  10  24 SW9       30.57S
$$

COZ009-010-012-014-032>034-037-058>063-190100-
...CENTRAL COLORADO...

CITY           SKY/WX    TMP DP  RH WIND       PRES   REMARKS
ASPEN          FAIR      58  11  15 CALM      30.27R
BUENA VISTA    FAIR      59   8  13 SW6       30.27R
COPPER MTN     FAIR      46   3  17 NW14      30.53R
BERTHOUD PASS  FAIR      36  28  75 NW8G16    30.55S
COTTONWOOD PAS FAIR      61  -6   6 CALM      30.39S
GUNNISON       FAIR      60  12  15 SE6       30.27F
KREMMLING      FAIR      68   0   6 CALM      30.26R
LEADVILLE      FAIR      52  -1  11 VRB3      30.38R
SALIDA         NOT AVBL
SUNLIGHT       FAIR      45   3  18 W6        30.48S
WILKERSON PASS FAIR      48  -4  11 SW6       30.51S
$$

COZ069>075-190100-
...SAN LUIS VALLEY/SANGRE DE CRISTO MOUNTAINS...

CITY           SKY/WX    TMP DP  RH WIND       PRES   REMARKS
ALAMOSA        FAIR      63   8  11 E3        30.26S
DEL NORTE      FAIR      61  16  17 NE6       30.29R
LA VETA PASS   FAIR      48  12  23 NE10G17   30.54R
SAGUACHE       FAIR      59  18  20 CALM      30.29S
$$

COZ035-036-038>040-190100-
...NORTHERN COLORADO FRONT RANGE...

CITY           SKY/WX    TMP DP  RH WIND       PRES   REMARKS
DENVER INTL AP FAIR      66  19  16 SE8       30.12R
DMNS CITY PARK   N/A     72   9   8 E10       30.11S
AURORA         PTCLDY    65  22  19 SE9       30.14R
FRONT RANGE AP NOT AVBL
ERIE MUNI ARPT FAIR      70  16  12 SE6       30.15R
BOULDER MUN AP FAIR      72  21  15 CALM      30.11R
CENTENNIAL     FAIR      68  14  12 SE7       30.14S
BROOMFIELD     PTCLDY    73  14  10 SE5       30.14R
FORT COLLINS   FAIR      70  25  18 SE6       30.11R
LONGMONT       FAIR      72  22  15 CALM      30.11S HAZE
$$

COZ041-046-047-076>085-087-088-190100-
...PIKES PEAK/PALMER DIVIDE AND SOUTHERN FOOTHILLS...

CITY           SKY/WX    TMP DP  RH WIND       PRES   REMARKS
COLO. SPRINGS  MOCLDY    69  14  12 SE9       30.19R
A. F. ACADEMY  FAIR      64   8  11 SE7       30.20R
SCHRIEVER AFB  FAIR      65  14  13 E7        30.20R
CHEYENNE MTN   NOT AVBL
ELLICOTT       FAIR     N/A N/A N/A SE9       30.19R
FALCON         FAIR      61  10  13 S7        30.24S
FORT CARSON    FAIR      69  16  13 SE9       30.16R
LIMON          FAIR      64  20  18 S7        30.15R
MONUMENT HILL  FAIR      55  16  21 SE7       30.25S
CANON CITY     CLEAR     72  14  11 E6        30.13R
WALSENBURG     FAIR      70  16  12 CALM      30.18S
TRINIDAD       FAIR      72  20  14 NE5       30.16R
$$

COZ042>045-048>051-090-091-190100-
...NORTHEAST COLORADO...

CITY           SKY/WX    TMP DP  RH WIND       PRES   REMARKS
GREELEY ARPT   FAIR      69  33  26 SE5       30.09S
AKRON          FAIR      63  21  20 E8        30.11R
BURLINGTON     FAIR      66  23  19 E8        30.10R
WRAY           FAIR      68  23  18 E7        30.09R
YUMA           NOT AVBL
STERLING       FAIR      70  27  19 E3        30.07S
HOLYOKE        FAIR      66  30  26 E8        30.10R
FORT MORGAN    FAIR      63  20  19 E9        30.11R
$$

COZ086-089-092>099-190100-
...SOUTHEAST COLORADO...

CITY           SKY/WX    TMP DP  RH WIND       PRES   REMARKS
PUEBLO         FAIR      76  14   9 E6        30.08R
LA JUNTA       FAIR      72  28  19 SE8       30.07R
LAMAR          FAIR      72  29  20 SE10      30.03R
SPRINGFIELD      N/A     67  36  31 NE7       30.08R
$$




USA.gov is the U.S. government's official web portal to all federal, state and local government web resources and services.